Santiago de Compostela, Spain

2:45 AM CEST on August 20, 2017 (GMT +0200)
Santiago

Weather History for LEST - June, 2013

Change the Weather History Date:

Saturday, June 8, 2013

  Actual Average Record
Temperature  
Mean Temperature 54 °F -  
Max Temperature 57 °F 71 °F 91 °F (2005)
Min Temperature 50 °F 52 °F 42 °F (1999)
Degree Days  
Heating Degree Days 12    
Growing Degree Days 4 (Base 50)    
Moisture  
Dew Point 52 °F    
Average Humidity 93    
Maximum Humidity 100    
Minimum Humidity 82    
Precipitation  
Precipitation 0.00 in - - ()
Sea Level Pressure  
Sea Level Pressure 30.02 in    
Wind  
Wind Speed 2 mph ()    
Max Wind Speed 7 mph    
Max Gust Speed -    
Visibility 3.2 miles    
Events Fog , Rain    
Averages and records for this station are not official NWS values.
T = Trace of Precipitation, MM = Missing Value Source: Averaged Metar Reports

Daily Weather History Graph

Daily Weather History Graph

Search for Another Location

Airport or City:

Trip Planner

Search our weather history database for the weather conditions in past years. The results will help you decide how hot, cold, wet, or windy it might be!

Date:

Astronomy

Jun. 08, 2013 Rise Set
Actual Time 6:55 AM CEST 10:10 PM CEST
Civil Twilight 6:20 AM CEST 10:45 PM CEST
Nautical Twilight 5:35 AM CEST 11:30 PM CEST
Astronomical Twilight 4:40 AM CEST 12:26 AM CEST
Moon 6:53 AM CEST (6/8) 10:01 PM CEST (6/8)
Length of Visible Light 16h 25m
Length of Day
15h 15m
Waning Crescent, 0% of the Moon is Illuminated
Jun 8
Waning Crescent
Jun 8
New
Jun 16
First Quarter
Jun 23
Full
Jun 30
Last Quarter

Hourly Weather History & Observations

Time (CEST) Temp. Dew Point Humidity Pressure Visibility Wind Dir Wind Speed Gust Speed Precip Events Conditions
12:00 AM 53.6 °F 48.2 °F 82% 30.06 in 6.2 mi Variable 1.2 mph - N/A   Scattered Clouds
12:30 AM 53.6 °F 50.0 °F 88% 30.06 in 6.2 mi Variable 1.2 mph - N/A   Scattered Clouds
1:00 AM 51.8 °F 50.0 °F 94% 30.04 in 6.2 mi Calm Calm - N/A   Mostly Cloudy
1:30 AM 51.8 °F 48.2 °F 88% 30.04 in 6.2 mi Calm Calm - N/A   Mostly Cloudy
2:00 AM 51.8 °F 48.2 °F 88% 30.04 in 6.2 mi Variable 1.2 mph - N/A   Mostly Cloudy
2:30 AM 51.8 °F 48.2 °F 88% 30.04 in 6.2 mi Calm Calm - N/A   Mostly Cloudy
3:00 AM 50.0 °F 48.2 °F 94% 30.04 in 6.2 mi Calm Calm - N/A   Mostly Cloudy
3:30 AM 51.8 °F 48.2 °F 88% 30.04 in 6.2 mi Calm Calm - N/A   Mostly Cloudy
4:00 AM 51.8 °F 50.0 °F 94% 30.01 in 6.2 mi Variable 1.2 mph - N/A   Mostly Cloudy
4:30 AM 51.8 °F 50.0 °F 94% 30.01 in 5.0 mi Variable 1.2 mph - N/A   Mostly Cloudy
5:00 AM 51.8 °F 50.0 °F 94% 30.01 in 5.0 mi Variable 2.3 mph - N/A   Mostly Cloudy
5:30 AM 51.8 °F 50.0 °F 94% 29.98 in 2.5 mi Variable 2.3 mph - N/A   Mostly Cloudy
6:00 AM 51.8 °F 50.0 °F 94% 30.01 in 1.2 mi Variable 1.2 mph - N/A   Mostly Cloudy
6:30 AM 51.8 °F 50.0 °F 94% 30.01 in 2.5 mi Calm Calm - N/A   Mostly Cloudy
7:00 AM 51.8 °F 50.0 °F 94% 30.01 in 1.9 mi Calm Calm - N/A   Mostly Cloudy
7:30 AM 51.8 °F 50.0 °F 94% 30.01 in 1.9 mi Calm Calm - N/A   Light Drizzle
8:00 AM 51.8 °F 50.0 °F 94% 30.01 in 2.5 mi Variable 2.3 mph - N/A   Mostly Cloudy
8:30 AM 51.8 °F 50.0 °F 94% 30.01 in 2.5 mi Variable 2.3 mph - N/A   Mostly Cloudy
9:00 AM 51.8 °F 50.0 °F 94% 30.01 in 0.9 mi Variable 2.3 mph - N/A Fog Patches of Fog
9:30 AM 51.8 °F 50.0 °F 94% 30.01 in 1.6 mi SW 3.5 mph - N/A   Mostly Cloudy
10:00 AM 53.6 °F 51.8 °F 94% 30.01 in 3.1 mi Variable 1.2 mph - N/A   Mostly Cloudy
10:30 AM 57.2 °F 51.8 °F 82% 30.04 in 3.1 mi Variable 3.5 mph - N/A   Mostly Cloudy
11:00 AM 55.4 °F 50.0 °F 82% 30.04 in 4.3 mi WSW 5.8 mph - N/A   Mostly Cloudy
11:30 AM 55.4 °F 51.8 °F 88% 30.04 in 5.0 mi WSW 4.6 mph - N/A   Mostly Cloudy
12:00 PM 55.4 °F 51.8 °F 88% 30.04 in 5.0 mi WSW 3.5 mph - N/A   Mostly Cloudy
12:30 PM 55.4 °F 51.8 °F 88% 30.04 in 3.1 mi West 3.5 mph - N/A   Mostly Cloudy
12:46 PM 55.4 °F 51.8 °F 88% 30.04 in 1.2 mi West 3.5 mph - N/A   Mostly Cloudy
1:00 PM 53.6 °F 51.8 °F 94% 30.04 in 1.2 mi Variable 2.3 mph - N/A   Light Drizzle
1:30 PM 55.4 °F 53.6 °F 94% 30.04 in 1.2 mi Variable 2.3 mph - N/A   Light Drizzle
2:00 PM 55.4 °F 53.6 °F 94% 30.04 in 1.6 mi Variable 2.3 mph - N/A   Light Drizzle
2:30 PM 53.6 °F 53.6 °F 100% 30.04 in 1.6 mi SW 5.8 mph - N/A   Light Drizzle
3:00 PM 55.4 °F 53.6 °F 94% 30.04 in 3.1 mi SW 5.8 mph - N/A   Light Drizzle
3:30 PM 55.4 °F 53.6 °F 94% 30.04 in 4.3 mi West 4.6 mph - N/A   Mostly Cloudy
4:00 PM 55.4 °F 53.6 °F 94% 30.04 in 4.3 mi SW 4.6 mph - N/A   Mostly Cloudy
4:30 PM 55.4 °F 53.6 °F 94% 30.01 in 4.3 mi WSW 5.8 mph - N/A   Mostly Cloudy
5:00 PM 55.4 °F 53.6 °F 94% 30.01 in 4.3 mi WSW 4.6 mph - N/A   Drizzle
5:30 PM 55.4 °F 53.6 °F 94% 30.01 in 3.1 mi WSW 3.5 mph - N/A   Drizzle
6:00 PM 55.4 °F 53.6 °F 94% 30.01 in 3.1 mi West 4.6 mph - N/A   Drizzle
6:30 PM 55.4 °F 53.6 °F 94% 30.01 in 3.1 mi WSW 4.6 mph - N/A   Drizzle
6:43 PM 55.4 °F 53.6 °F 94% 30.01 in 1.2 mi WSW 4.6 mph - N/A   Drizzle
7:00 PM 55.4 °F 53.6 °F 94% 30.01 in 1.2 mi Variable 2.3 mph - N/A Rain Light Rain
7:30 PM 55.4 °F 53.6 °F 94% 30.01 in 1.2 mi WNW 4.6 mph - N/A Rain Light Rain
8:00 PM 55.4 °F 53.6 °F 94% 30.01 in 1.2 mi West 5.8 mph - N/A Rain Rain
8:30 PM 55.4 °F 53.6 °F 94% 30.01 in 3.7 mi WSW 3.5 mph - N/A   Light Drizzle
9:00 PM 55.4 °F 53.6 °F 94% 30.01 in 3.1 mi West 5.8 mph - N/A   Light Drizzle
9:12 PM 55.4 °F 53.6 °F 94% 30.01 in 0.6 mi West 5.8 mph - N/A   Light Drizzle
9:30 PM 55.4 °F 53.6 °F 94% 30.01 in 1.2 mi West 4.6 mph - N/A   Light Drizzle
10:00 PM 55.4 °F 55.4 °F 100% 30.01 in 1.9 mi West 3.5 mph - N/A   Light Drizzle
10:30 PM 53.6 °F 53.6 °F 100% 30.01 in 1.9 mi West 6.9 mph - N/A   Light Drizzle
11:00 PM 53.6 °F 53.6 °F 100% 30.01 in 1.9 mi West 6.9 mph - N/A   Overcast
11:30 PM 53.6 °F 53.6 °F 100% 30.04 in 1.9 mi West 4.6 mph - N/A   Overcast